"TOA5","MOW","CPU:UNC_MeetingWaters","DataHourly"
"TIMESTAMP","SondeTempC","SpCond","DOSat","DOmg","pH","Turb","BattVolt_Min"
"TS","","","","","","",""
"","Smp","Smp","Smp","Smp","Smp","Smp","Min"
"2008-05-01 11:00:00",-6999.0,0.115000002086,76.5999984741,7.57999992371,7.98000001907,102.300003052,11.4799995422
"2008-05-01 12:00:00",-6999.0,0.115000002086,76.5999984741,7.57999992371,7.98000001907,102.300003052,14.0399999619
"2008-05-01 13:00:00",-6999.0,0.115000002086,76.5999984741,7.57999992371,7.98000001907,102.300003052,14.0100002289
"2008-05-01 14:00:00",-6999.0,0.115000002086,76.5999984741,7.57999992371,7.98000001907,102.300003052,13.8800001144
"2008-05-01 15:00:00",-6999.0,0.115000002086,76.5999984741,7.57999992371,7.98000001907,102.300003052,13.9799995422
"2008-05-01 16:00:00",-6999.0,0.115000002086,76.5999984741,7.57999992371,7.98000001907,102.300003052,11.8199996948
"2008-05-02 10:00:00",-6999.0,0.115000002086,76.5999984741,7.57999992371,7.98000001907,102.300003052,11.4099998474
"2008-05-02 11:00:00",-6999.0,0.115000002086,76.5999984741,7.57999992371,7.98000001907,102.300003052,11.6700000763
"2008-05-02 12:00:00",-6999.0,0.115000002086,76.5999984741,7.57999992371,7.98000001907,102.300003052,13.9799995422
"2008-05-02 13:00:00",-6999.0,0.115000002086,76.5999984741,7.57999992371,7.98000001907,102.300003052,13.8400001526
"2008-05-02 14:00:00",-6999.0,0.115000002086,76.5999984741,7.57999992371,7.98000001907,102.300003052,13.8400001526
"2008-05-02 15:00:00",-6999.0,0.115000002086,76.5999984741,7.57999992371,7.98000001907,102.300003052,13.5500001907
"2008-05-02 16:00:00",-6999.0,0.115000002086,76.5999984741,7.57999992371,7.98000001907,102.300003052,11.720000267
"2008-05-03 11:00:00",-6999.0,0.115000002086,76.5999984741,7.57999992371,7.98000001907,102.300003052,11.8800001144
"2008-05-03 12:00:00",-6999.0,0.115000002086,76.5999984741,7.57999992371,7.98000001907,102.300003052,14.0799999237
"2008-05-03 13:00:00",-6999.0,0.115000002086,76.5999984741,7.57999992371,7.98000001907,102.300003052,14.5699996948
"2008-05-03 14:00:00",-6999.0,0.115000002086,76.5999984741,7.57999992371,7.98000001907,102.300003052,14.5600004196
"2008-05-03 15:00:00",-6999.0,0.115000002086,76.5999984741,7.57999992371,7.98000001907,102.300003052,13.779999733
"2008-05-03 16:00:00",-6999.0,0.115000002086,76.5999984741,7.57999992371,7.98000001907,102.300003052,11.5699996948
"2008-05-04 11:00:00",-6999.0,0.115000002086,76.5999984741,7.57999992371,7.98000001907,102.300003052,11.6400003433
"2008-05-04 12:00:00",-6999.0,0.115000002086,76.5999984741,7.57999992371,7.98000001907,102.300003052,14.0699996948
"2008-05-04 13:00:00",-6999.0,0.115000002086,76.5999984741,7.57999992371,7.98000001907,102.300003052,13.8299999237
"2008-05-04 14:00:00",-6999.0,0.115000002086,76.5999984741,7.57999992371,7.98000001907,102.300003052,13.8100004196
"2008-05-04 15:00:00",-6999.0,0.115000002086,76.5999984741,7.57999992371,7.98000001907,102.300003052,14.0799999237
"2008-05-04 16:00:00",-6999.0,0.115000002086,76.5999984741,7.57999992371,7.98000001907,102.300003052,12.5200004578
"2008-05-04 17:00:00",-6999.0,0.115000002086,76.5999984741,7.57999992371,7.98000001907,102.300003052,11.3500003815
"2008-05-05 09:00:00",-6999.0,0.115000002086,76.5999984741,7.57999992371,7.98000001907,102.300003052,11.4099998474
"2008-05-05 10:00:00",-6999.0,0.115000002086,76.5999984741,7.57999992371,7.98000001907,102.300003052,11.5100002289
"2008-05-05 11:00:00",-6999.0,0.115000002086,76.5999984741,7.57999992371,7.98000001907,102.300003052,11.8500003815
"2008-05-05 12:00:00",-6999.0,0.115000002086,76.5999984741,7.57999992371,7.98000001907,102.300003052,14.779999733
"2008-05-05 13:00:00",-6999.0,0.115000002086,76.5999984741,7.57999992371,7.98000001907,102.300003052,14.2600002289
"2008-05-05 14:00:00",-6999.0,0.115000002086,76.5999984741,7.57999992371,7.98000001907,102.300003052,14.529999733
"2008-05-05 15:00:00",-6999.0,0.115000002086,76.5999984741,7.57999992371,7.98000001907,102.300003052,12.2600002289
"2008-05-05 16:00:00",-6999.0,0.115000002086,76.5999984741,7.57999992371,7.98000001907,102.300003052,12.1000003815
"2008-05-06 10:00:00",-6999.0,0.115000002086,76.5999984741,7.57999992371,7.98000001907,102.300003052,11.6800003052
"2008-05-06 11:00:00",-6999.0,0.115000002086,76.5999984741,7.57999992371,7.98000001907,102.300003052,11.7100000381
"2008-05-06 12:00:00",-6999.0,0.115000002086,76.5999984741,7.57999992371,7.98000001907,102.300003052,14.3800001144
"2008-05-06 13:00:00",-6999.0,0.115000002086,76.5999984741,7.57999992371,7.98000001907,102.300003052,14.6300001144
"2008-05-06 14:00:00",-6999.0,0.115000002086,76.5999984741,7.57999992371,7.98000001907,102.300003052,13.8999996185
"2008-05-06 15:00:00",-6999.0,0.115000002086,76.5999984741,7.57999992371,7.98000001907,102.300003052,11.9899997711
"2008-05-06 16:00:00",-6999.0,0.115000002086,76.5999984741,7.57999992371,7.98000001907,102.300003052,11.9600000381
"2008-05-06 17:00:00",-6999.0,0.115000002086,76.5999984741,7.57999992371,7.98000001907,102.300003052,11.6099996567
"2008-05-07 10:00:00",-6999.0,0.115000002086,76.5999984741,7.57999992371,7.98000001907,102.300003052,11.7399997711
"2008-05-07 11:00:00",-6999.0,0.115000002086,76.5999984741,7.57999992371,7.98000001907,102.300003052,11.8400001526
"2008-05-07 12:00:00",-6999.0,0.115000002086,76.5999984741,7.57999992371,7.98000001907,102.300003052,14.3599996567
"2008-05-07 13:00:00",-6999.0,0.115000002086,76.5999984741,7.57999992371,7.98000001907,102.300003052,13.9200000763
"2008-05-07 14:00:00",-6999.0,0.115000002086,76.5999984741,7.57999992371,7.98000001907,102.300003052,13.720000267
"2008-05-07 15:00:00",-6999.0,0.115000002086,76.5999984741,7.57999992371,7.98000001907,102.300003052,12.0399999619
"2008-05-07 16:00:00",-6999.0,0.115000002086,76.5999984741,7.57999992371,7.98000001907,102.300003052,11.7100000381
"2008-05-08 13:00:00",-6999.0,0.115000002086,76.5999984741,7.57999992371,7.98000001907,102.300003052,11.7700004578
"2008-05-08 14:00:00",-6999.0,0.115000002086,76.5999984741,7.57999992371,7.98000001907,102.300003052,14.7399997711
"2008-05-08 15:00:00",-6999.0,0.115000002086,76.5999984741,7.57999992371,7.98000001907,102.300003052,14.0
"2008-05-08 16:00:00",-6999.0,0.115000002086,76.5999984741,7.57999992371,7.98000001907,102.300003052,13.9300003052
"2008-05-08 17:00:00",-6999.0,0.115000002086,76.5999984741,7.57999992371,7.98000001907,102.300003052,11.8100004196
"2008-05-09 11:00:00",-6999.0,0.115000002086,76.5999984741,7.57999992371,7.98000001907,102.300003052,12.029999733
"2008-05-09 12:00:00",-6999.0,0.115000002086,76.5999984741,7.57999992371,7.98000001907,102.300003052,14.0200004578
"2008-05-09 13:00:00",-6999.0,0.115000002086,76.5999984741,7.57999992371,7.98000001907,102.300003052,14.0200004578
"2008-05-09 14:00:00",-6999.0,0.115000002086,76.5999984741,7.57999992371,7.98000001907,102.300003052,14.6400003433
"2008-05-09 15:00:00",-6999.0,0.115000002086,76.5999984741,7.57999992371,7.98000001907,102.300003052,11.5799999237
"2008-05-09 16:00:00",-6999.0,0.115000002086,76.5999984741,7.57999992371,7.98000001907,102.300003052,12.9799995422
"2008-05-09 17:00:00",-6999.0,0.115000002086,76.5999984741,7.57999992371,7.98000001907,102.300003052,11.3400001526
"2008-05-10 11:00:00",-6999.0,0.115000002086,76.5999984741,7.57999992371,7.98000001907,102.300003052,12.0
"2008-05-10 12:00:00",-6999.0,0.115000002086,76.5999984741,7.57999992371,7.98000001907,102.300003052,14.0
"2008-05-10 13:00:00",-6999.0,0.115000002086,76.5999984741,7.57999992371,7.98000001907,102.300003052,14.0900001526
"2008-05-10 14:00:00",-6999.0,0.115000002086,76.5999984741,7.57999992371,7.98000001907,102.300003052,14.8299999237
"2008-05-10 15:00:00",-6999.0,0.115000002086,76.5999984741,7.57999992371,7.98000001907,102.300003052,14.1400003433
"2008-05-10 16:00:00",-6999.0,0.115000002086,76.5999984741,7.57999992371,7.98000001907,102.300003052,11.5399999619
"2008-05-12 10:00:00",-6999.0,0.115000002086,76.5999984741,7.57999992371,7.98000001907,102.300003052,11.9600000381
"2008-05-12 11:00:00",-6999.0,0.115000002086,76.5999984741,7.57999992371,7.98000001907,102.300003052,12.1300001144
"2008-05-12 12:00:00",-6999.0,0.115000002086,76.5999984741,7.57999992371,7.98000001907,102.300003052,11.5699996948
"2008-05-12 13:00:00",-6999.0,0.115000002086,76.5999984741,7.57999992371,7.98000001907,102.300003052,11.3699998856
"2008-05-12 15:00:00",-6999.0,0.115000002086,76.5999984741,7.57999992371,7.98000001907,102.300003052,11.5100002289
"2008-05-12 16:00:00",-6999.0,0.115000002086,76.5999984741,7.57999992371,7.98000001907,102.300003052,11.8699998856
"2008-05-13 11:00:00",-6999.0,0.115000002086,76.5999984741,7.57999992371,7.98000001907,102.300003052,12.0900001526
"2008-05-13 12:00:00",-6999.0,0.115000002086,76.5999984741,7.57999992371,7.98000001907,102.300003052,13.9600000381
"2008-05-13 13:00:00",-6999.0,0.115000002086,76.5999984741,7.57999992371,7.98000001907,102.300003052,14.1099996567
"2008-05-13 14:00:00",-6999.0,0.115000002086,76.5999984741,7.57999992371,7.98000001907,102.300003052,13.7399997711
"2008-05-13 15:00:00",-6999.0,0.115000002086,76.5999984741,7.57999992371,7.98000001907,102.300003052,14.3400001526
"2008-05-13 16:00:00",-6999.0,0.115000002086,76.5999984741,7.57999992371,7.98000001907,102.300003052,12.1999998093
"2008-05-13 17:00:00",-6999.0,0.115000002086,76.5999984741,7.57999992371,7.98000001907,102.300003052,11.6000003815
"2008-05-14 09:00:00",-6999.0,0.115000002086,76.5999984741,7.57999992371,7.98000001907,102.300003052,11.7299995422
"2008-05-14 10:00:00",-6999.0,0.115000002086,76.5999984741,7.57999992371,7.98000001907,102.300003052,12.2299995422
"2008-05-14 11:00:00",-6999.0,0.115000002086,76.5999984741,7.57999992371,7.98000001907,102.300003052,14.1999998093
"2008-05-14 12:00:00",-6999.0,0.115000002086,76.5999984741,7.57999992371,7.98000001907,102.300003052,14.3000001907
"2008-05-14 13:00:00",-6999.0,0.115000002086,76.5999984741,7.57999992371,7.98000001907,102.300003052,14.1599998474
"2008-05-14 14:00:00",-6999.0,0.115000002086,76.5999984741,7.57999992371,7.98000001907,102.300003052,14.1400003433
"2008-05-14 15:00:00",-6999.0,0.115000002086,76.5999984741,7.57999992371,7.98000001907,102.300003052,13.9300003052
"2008-05-14 16:00:00",-6999.0,0.115000002086,76.5999984741,7.57999992371,7.98000001907,102.300003052,12.5900001526
"2008-05-14 17:00:00",-6999.0,0.115000002086,76.5999984741,7.57999992371,7.98000001907,102.300003052,11.8900003433
"2008-05-15 10:00:00",-6999.0,0.115000002086,76.5999984741,7.57999992371,7.98000001907,102.300003052,11.8500003815
"2008-05-15 11:00:00",-6999.0,0.115000002086,76.5999984741,7.57999992371,7.98000001907,102.300003052,12.470000267
"2008-05-15 12:00:00",-6999.0,0.115000002086,76.5999984741,7.57999992371,7.98000001907,102.300003052,11.7299995422
"2008-05-15 13:00:00",-6999.0,0.115000002086,76.5999984741,7.57999992371,7.98000001907,102.300003052,11.3000001907
"2008-05-15 14:00:00",-6999.0,0.115000002086,76.5999984741,7.57999992371,7.98000001907,102.300003052,12.9600000381
"2008-05-15 15:00:00",-6999.0,0.115000002086,76.5999984741,7.57999992371,7.98000001907,102.300003052,14.0200004578
"2008-05-15 16:00:00",-6999.0,0.115000002086,76.5999984741,7.57999992371,7.98000001907,102.300003052,14.0100002289
"2008-05-15 17:00:00",-6999.0,0.115000002086,76.5999984741,7.57999992371,7.98000001907,102.300003052,11.6700000763
"2008-05-16 10:00:00",-6999.0,0.115000002086,76.5999984741,7.57999992371,7.98000001907,102.300003052,11.9200000763
"2008-05-16 11:00:00",-6999.0,0.115000002086,76.5999984741,7.57999992371,7.98000001907,102.300003052,11.9399995804
"2008-05-16 12:00:00",-6999.0,0.115000002086,76.5999984741,7.57999992371,7.98000001907,102.300003052,15.2100000381
"2008-05-16 13:00:00",-6999.0,0.115000002086,76.5999984741,7.57999992371,7.98000001907,102.300003052,14.1700000763
"2008-05-16 14:00:00",-6999.0,0.115000002086,76.5999984741,7.57999992371,7.98000001907,102.300003052,13.7600002289
"2008-05-16 15:00:00",-6999.0,0.115000002086,76.5999984741,7.57999992371,7.98000001907,102.300003052,13.3400001526
"2008-05-16 16:00:00",-6999.0,0.115000002086,76.5999984741,7.57999992371,7.98000001907,102.300003052,12.9899997711
"2008-05-17 11:00:00",-6999.0,0.115000002086,76.5999984741,7.57999992371,7.98000001907,102.300003052,10.6599998474
"2008-05-17 12:00:00",-6999.0,0.115000002086,76.5999984741,7.57999992371,7.98000001907,102.300003052,15.8000001907
"2008-05-17 13:00:00",-6999.0,0.115000002086,76.5999984741,7.57999992371,7.98000001907,102.300003052,13.970000267
"2008-05-17 14:00:00",-6999.0,0.115000002086,76.5999984741,7.57999992371,7.98000001907,102.300003052,13.6199998856
"2008-05-17 15:00:00",-6999.0,0.115000002086,76.5999984741,7.57999992371,7.98000001907,102.300003052,14.3999996185
"2008-05-17 16:00:00",-6999.0,0.115000002086,76.5999984741,7.57999992371,7.98000001907,102.300003052,11.2600002289
"2008-05-17 17:00:00",-6999.0,0.115000002086,76.5999984741,7.57999992371,7.98000001907,102.300003052,11.3000001907
"2008-05-18 11:00:00",-6999.0,0.115000002086,76.5999984741,7.57999992371,7.98000001907,102.300003052,11.5500001907
"2008-05-18 12:00:00",-6999.0,0.115000002086,76.5999984741,7.57999992371,7.98000001907,102.300003052,13.8599996567
"2008-05-18 13:00:00",-6999.0,0.115000002086,76.5999984741,7.57999992371,7.98000001907,102.300003052,13.029999733
"2008-05-18 14:00:00",-6999.0,0.115000002086,76.5999984741,7.57999992371,7.98000001907,102.300003052,13.3599996567
"2008-05-18 15:00:00",-6999.0,0.115000002086,76.5999984741,7.57999992371,7.98000001907,102.300003052,13.9499998093
"2008-05-18 16:00:00",-6999.0,0.115000002086,76.5999984741,7.57999992371,7.98000001907,102.300003052,11.9200000763
"2008-05-19 12:00:00",-6999.0,0.115000002086,76.5999984741,7.57999992371,7.98000001907,102.300003052,14.1999998093
"2008-05-19 13:00:00",-6999.0,0.115000002086,76.5999984741,7.57999992371,7.98000001907,102.300003052,15.5200004578
"2008-05-19 14:00:00",-6999.0,0.115000002086,76.5999984741,7.57999992371,7.98000001907,102.300003052,12.4399995804
"2008-05-19 15:00:00",-6999.0,0.115000002086,76.5999984741,7.57999992371,7.98000001907,102.300003052,15.3900003433
"2008-05-19 16:00:00",-6999.0,0.115000002086,76.5999984741,7.57999992371,7.98000001907,102.300003052,12.2100000381
"2008-05-20 10:00:00",-6999.0,0.115000002086,76.5999984741,7.57999992371,7.98000001907,102.300003052,11.6300001144
"2008-05-20 11:00:00",-6999.0,0.115000002086,76.5999984741,7.57999992371,7.98000001907,102.300003052,12.2899999619
"2008-05-20 12:00:00",-6999.0,0.115000002086,76.5999984741,7.57999992371,7.98000001907,102.300003052,13.8800001144
"2008-05-20 13:00:00",-6999.0,0.115000002086,76.5999984741,7.57999992371,7.98000001907,102.300003052,14.3100004196
"2008-05-20 14:00:00",-6999.0,0.115000002086,76.5999984741,7.57999992371,7.98000001907,102.300003052,14.4300003052
"2008-05-20 15:00:00",-6999.0,0.115000002086,76.5999984741,7.57999992371,7.98000001907,102.300003052,13.0900001526
"2008-05-21 10:00:00",-6999.0,0.115000002086,76.5999984741,7.57999992371,7.98000001907,102.300003052,11.3500003815
"2008-05-21 11:00:00",-6999.0,0.115000002086,76.5999984741,7.57999992371,7.98000001907,102.300003052,11.8999996185
"2008-05-21 12:00:00",-6999.0,0.115000002086,76.5999984741,7.57999992371,7.98000001907,102.300003052,13.6599998474
"2008-05-21 13:00:00",-6999.0,0.115000002086,76.5999984741,7.57999992371,7.98000001907,102.300003052,14.2399997711
"2008-05-21 14:00:00",-6999.0,0.115000002086,76.5999984741,7.57999992371,7.98000001907,102.300003052,15.4799995422
"2008-05-21 15:00:00",-6999.0,0.115000002086,76.5999984741,7.57999992371,7.98000001907,102.300003052,12.8900003433
"2008-05-21 17:00:00",-6999.0,0.115000002086,76.5999984741,7.57999992371,7.98000001907,102.300003052,11.6300001144
"2008-05-22 11:00:00",-6999.0,0.115000002086,76.5999984741,7.57999992371,7.98000001907,102.300003052,10.5100002289
"2008-05-22 12:00:00",-6999.0,0.115000002086,76.5999984741,7.57999992371,7.98000001907,102.300003052,12.5
"2008-05-22 13:00:00",-6999.0,0.115000002086,76.5999984741,7.57999992371,7.98000001907,102.300003052,16.4300003052
"2008-05-22 14:00:00",-6999.0,0.115000002086,76.5999984741,7.57999992371,7.98000001907,102.300003052,12.720000267
"2008-05-22 15:00:00",-6999.0,0.115000002086,76.5999984741,7.57999992371,7.98000001907,102.300003052,12.8699998856
"2008-05-22 16:00:00",-6999.0,0.115000002086,76.5999984741,7.57999992371,7.98000001907,102.300003052,11.1099996567
"2008-05-22 17:00:00",-6999.0,0.115000002086,76.5999984741,7.57999992371,7.98000001907,102.300003052,10.6199998856
"2008-05-23 11:00:00",-6999.0,0.115000002086,76.5999984741,7.57999992371,7.98000001907,102.300003052,12.6999998093
"2008-05-23 12:00:00",-6999.0,0.115000002086,76.5999984741,7.57999992371,7.98000001907,102.300003052,13.9099998474
"2008-05-23 13:00:00",-6999.0,0.115000002086,76.5999984741,7.57999992371,7.98000001907,102.300003052,16.7000007629
"2008-05-23 14:00:00",-6999.0,0.115000002086,76.5999984741,7.57999992371,7.98000001907,102.300003052,13.5799999237
"2008-05-23 15:00:00",-6999.0,0.115000002086,76.5999984741,7.57999992371,7.98000001907,102.300003052,13.1800003052
"2008-05-23 16:00:00",-6999.0,0.115000002086,76.5999984741,7.57999992371,7.98000001907,102.300003052,13.3500003815
"2008-05-23 17:00:00",-6999.0,0.115000002086,76.5999984741,7.57999992371,7.98000001907,102.300003052,10.6999998093
"2008-05-24 11:00:00",-6999.0,0.115000002086,76.5999984741,7.57999992371,7.98000001907,102.300003052,10.9200000763
"2008-05-24 12:00:00",-6999.0,0.115000002086,76.5999984741,7.57999992371,7.98000001907,102.300003052,13.0699996948
"2008-05-24 13:00:00",-6999.0,0.115000002086,76.5999984741,7.57999992371,7.98000001907,102.300003052,11.7299995422
"2008-05-24 14:00:00",-6999.0,0.115000002086,76.5999984741,7.57999992371,7.98000001907,102.300003052,12.5500001907
"2008-05-24 15:00:00",-6999.0,0.115000002086,76.5999984741,7.57999992371,7.98000001907,102.300003052,13.8599996567
"2008-05-24 16:00:00",-6999.0,0.115000002086,76.5999984741,7.57999992371,7.98000001907,102.300003052,12.6999998093
"2008-05-24 18:00:00",-6999.0,0.115000002086,76.5999984741,7.57999992371,7.98000001907,102.300003052,10.5399999619
"2008-05-25 10:00:00",-6999.0,0.115000002086,76.5999984741,7.57999992371,7.98000001907,102.300003052,10.6400003433
"2008-05-25 11:00:00",-6999.0,0.115000002086,76.5999984741,7.57999992371,7.98000001907,102.300003052,10.5699996948
"2008-05-25 13:00:00",-6999.0,0.115000002086,76.5999984741,7.57999992371,7.98000001907,102.300003052,13.9399995804
"2008-05-25 14:00:00",-6999.0,0.115000002086,76.5999984741,7.57999992371,7.98000001907,102.300003052,13.9099998474
"2008-05-25 15:00:00",-6999.0,0.115000002086,76.5999984741,7.57999992371,7.98000001907,102.300003052,15.2299995422
"2008-05-25 16:00:00",-6999.0,0.115000002086,76.5999984741,7.57999992371,7.98000001907,102.300003052,13.7299995422
"2008-05-25 17:00:00",-6999.0,0.115000002086,76.5999984741,7.57999992371,7.98000001907,102.300003052,10.8100004196
"2008-05-26 09:00:00",-6999.0,0.115000002086,76.5999984741,7.57999992371,7.98000001907,102.300003052,10.470000267
"2008-05-26 13:00:00",-6999.0,0.115000002086,76.5999984741,7.57999992371,7.98000001907,102.300003052,14.2100000381
"2008-05-26 14:00:00",-6999.0,0.115000002086,76.5999984741,7.57999992371,7.98000001907,102.300003052,15.0600004196
"2008-05-26 15:00:00",-6999.0,0.115000002086,76.5999984741,7.57999992371,7.98000001907,102.300003052,13.9499998093
"2008-05-26 16:00:00",-6999.0,0.115000002086,76.5999984741,7.57999992371,7.98000001907,102.300003052,13.0900001526
"2008-05-26 17:00:00",-6999.0,0.115000002086,76.5999984741,7.57999992371,7.98000001907,102.300003052,10.6800003052
"2008-05-26 18:00:00",-6999.0,0.115000002086,76.5999984741,7.57999992371,7.98000001907,102.300003052,10.6499996185
"2008-05-27 10:00:00",-6999.0,0.115000002086,76.5999984741,7.57999992371,7.98000001907,102.300003052,10.4099998474
"2008-05-27 11:00:00",-6999.0,0.115000002086,76.5999984741,7.57999992371,7.98000001907,102.300003052,12.8299999237
"2008-05-27 12:00:00",-6999.0,0.115000002086,76.5999984741,7.57999992371,7.98000001907,102.300003052,13.3299999237
"2008-05-27 13:00:00",-6999.0,0.115000002086,76.5999984741,7.57999992371,7.98000001907,102.300003052,12.4200000763
"2008-05-27 14:00:00",-6999.0,0.115000002086,76.5999984741,7.57999992371,7.98000001907,102.300003052,13.279999733
"2008-05-27 15:00:00",-6999.0,0.115000002086,76.5999984741,7.57999992371,7.98000001907,102.300003052,14.7399997711
"2008-05-27 16:00:00",-6999.0,0.115000002086,76.5999984741,7.57999992371,7.98000001907,102.300003052,13.6099996567
"2008-05-27 17:00:00",-6999.0,0.115000002086,76.5999984741,7.57999992371,7.98000001907,102.300003052,10.6999998093
"2008-05-28 12:00:00",-6999.0,0.115000002086,76.5999984741,7.57999992371,7.98000001907,102.300003052,10.4300003052
"2008-05-28 14:00:00",-6999.0,0.115000002086,76.5999984741,7.57999992371,7.98000001907,102.300003052,10.6099996567
"2008-05-29 12:00:00",18.1599998474,0.180000007153,6.94000005722,-4.30000019073,7.19999980927,99.5999984741,11.1000003815
"2008-05-29 13:00:00",-6999.0,0.180000007153,6.94000005722,-4.30000019073,7.19999980927,99.5999984741,14.25
"2008-05-29 14:00:00",-6999.0,0.180000007153,6.94000005722,-4.30000019073,7.19999980927,99.5999984741,14.25
"2008-05-29 15:00:00",-6999.0,0.180000007153,6.94000005722,-4.30000019073,7.19999980927,99.5999984741,15.2700004578
"2008-05-29 16:00:00",-6999.0,0.180000007153,6.94000005722,-4.30000019073,7.19999980927,99.5999984741,14.1099996567
"2008-05-30 11:00:00",19.7299995422,0.259999990463,7.11000013351,-13.8999996185,3.70000004768,88.3000030518,11.3000001907
"2008-05-30 12:00:00",21.2600002289,0.187999993563,7.11000013351,-13.8000001907,3.5,92.1999969482,11.6999998093
"2008-05-30 13:00:00",22.6399993896,0.238000005484,7.01000022888,-8.19999980927,3.29999995232,93.6999969482,12.5699996948
"2008-05-30 14:00:00",24.2900009155,0.134000003338,6.96000003815,-5.5,1719.0,92.6999969482,14.2399997711
"2008-05-30 15:00:00",-6999.0,0.134000003338,6.96000003815,-5.5,1719.0,92.6999969482,11.4399995804
"2008-05-30 16:00:00",-6999.0,0.134000003338,6.96000003815,-5.5,1719.0,92.6999969482,14.0799999237
"2008-05-31 10:00:00",20.3600006104,0.208000004292,7.38999986649,-30.0,4.5,93.5,10.9200000763
"2008-05-31 11:00:00",21.5100002289,0.21099999547,7.28000020981,-23.8999996185,4.09999990463,94.5999984741,11.6099996567
"2008-05-31 12:00:00",22.6900005341,0.219999998808,7.13000011444,-15.5,1698.0,97.0,11.9499998093
"2008-05-31 13:00:00",-6999.0,0.219999998808,7.13000011444,-15.5,1698.0,97.0,13.3500003815
"2008-05-31 14:00:00",-6999.0,0.219999998808,7.13000011444,-15.5,1698.0,97.0,15.5
"2008-05-31 15:00:00",-6999.0,0.219999998808,7.13000011444,-15.5,1698.0,97.0,13.4399995804
"2008-05-31 16:00:00",25.0300006866,0.123000003397,6.98000001907,-6.59999990463,4.59999990463,90.0,13.5500001907
"2008-05-31 17:00:00",23.9799995422,0.127000004053,7.09999990463,-13.6000003815,4.5,90.3000030518,11.7100000381
